{"data":{"norad_id":44978,"epoch":"2026-05-24T23:07:16.320576Z","epoch_age_seconds":81235,"freshness":"FRESH","line1":"1 44978U 20002A   26144.96338334 -.00000345  00000+0  00000+0 0  9993","line2":"2 44978   0.0662 275.3367 0007014 125.4845 296.0818  1.00270634 23475","mean_motion":1.00270634,"eccentricity":0.0007014,"inclination_deg":0.0662,"raan_deg":275.3367,"arg_perigee_deg":125.4845,"mean_anomaly_deg":296.0818,"bstar":0,"rev_number":2347,"period_min":1436.1133888911,"perigee_km":35757.343062041,"apogee_km":35816.492200678,"semimajor_km":42165.05463136,"source":"CELESTRAK","updated_at":"2026-05-25T13:38:14.091886Z"}}